Abilene, TX

11:59 AM CDT on June 25, 2017 (GMT -0500)
Abilene Regional

Weather History for KABI - December, 2011

Change the Weather History Date:

Thursday, December 15, 2011

  Actual Average Record
Temperature  
Mean Temperature 49 °F 45 °F  
Max Temperature 55 °F 57 °F 83 °F (2010)
Min Temperature 42 °F 33 °F 10 °F (1901)
Degree Days  
Heating Degree Days 16 20  
Month to date heating degree days 322 279  
Since 1 July heating degree days 709 712  
Cooling Degree Days 0 0  
Month to date cooling degree days 0 0  
Year to date cooling degree days 3517 2408  
Moisture  
Dew Point 39 °F    
Average Humidity 68    
Maximum Humidity 86    
Minimum Humidity 50    
Precipitation  
Precipitation 0.05 in 0.04 in 1.17 in (1967)
Month to date precipitation 1.40 0.60  
Year to date precipitation 16.30 24.19  
Sea Level Pressure  
Sea Level Pressure 30.17 in    
Wind  
Wind Speed 8 mph (North)    
Max Wind Speed 15 mph    
Max Gust Speed 18 mph    
Visibility 10 miles    
Events Rain , Thunderstorm    
T = Trace of Precipitation, MM = Missing Value Source: NWS Daily Summary

Daily Weather History Graph

Daily Weather History Graph

Search for Another Location

Airport or City:

Trip Planner

Search our weather history database for the weather conditions in past years. The results will help you decide how hot, cold, wet, or windy it might be!

Date:

Astronomy

Dec. 15, 2011 Rise Set
Actual Time 7:32 AM CST 5:34 PM CST
Civil Twilight 7:05 AM CST 6:02 PM CST
Nautical Twilight 6:34 AM CST 6:32 PM CST
Astronomical Twilight 6:04 AM CST 7:02 PM CST
Moon 10:47 PM CST (12/15) 11:02 AM CST (12/15)
Length of Visible Light 10h 56m
Length of Day
10h 02m
Waning Gibbous, 74% of the Moon is Illuminated
Dec 15
Waning Gibbous
Dec 17
Last Quarter
Dec 24
New
Jan 1
First Quarter
Jan 9
Full

Hourly Weather History & Observations

Time (CST) Temp. Windchill Dew Point Humidity Pressure Visibility Wind Dir Wind Speed Gust Speed Precip Events Conditions
12:52 AM 52.0 °F - 42.1 °F 69% 30.03 in 10.0 mi Calm Calm - N/A   Clear
1:52 AM 51.1 °F - 39.0 °F 63% 30.04 in 10.0 mi NW 8.1 mph - N/A   Partly Cloudy
2:52 AM 53.1 °F - 37.0 °F 55% 30.01 in 10.0 mi NNW 12.7 mph - N/A   Mostly Cloudy
3:52 AM 53.1 °F - 36.0 °F 52% 30.02 in 10.0 mi NW 10.4 mph - N/A   Overcast
4:52 AM 51.1 °F - 37.9 °F 61% 30.04 in 10.0 mi NW 6.9 mph - 0.01 in Rain Light Rain
5:37 AM 50.0 °F - 39.2 °F 66% 30.10 in 10.0 mi South 4.6 mph - 0.00 in Thunderstorm Thunderstorm
5:52 AM 48.9 °F - 41.0 °F 74% 30.07 in 8.0 mi WNW 6.9 mph - 0.01 in Rain , Thunderstorm Light Thunderstorms and Rain
6:52 AM 46.9 °F - 42.1 °F 83% 30.14 in 10.0 mi West 5.8 mph - 0.02 in Thunderstorm Thunderstorm
7:02 AM 48.2 °F - 42.8 °F 82% 30.13 in 10.0 mi NNW 9.2 mph - 0.00 in Rain Light Rain
7:52 AM 46.9 °F - 41.0 °F 80% 30.13 in 10.0 mi North 4.6 mph - 0.00 in   Mostly Cloudy
8:52 AM 48.0 °F - 42.1 °F 80% 30.14 in 10.0 mi North 6.9 mph - N/A   Overcast
9:52 AM 48.0 °F - 41.0 °F 77% 30.16 in 10.0 mi NNE 8.1 mph - 0.00 in   Overcast
10:52 AM 48.0 °F - 39.9 °F 74% 30.19 in 10.0 mi NNE 9.2 mph - 0.00 in   Overcast
11:52 AM 48.0 °F - 39.9 °F 74% 30.18 in 10.0 mi NNE 5.8 mph - N/A   Overcast
12:52 PM 48.9 °F - 39.0 °F 69% 30.17 in 10.0 mi NNE 9.2 mph - 0.00 in Rain Light Rain
1:52 PM 46.9 °F - 42.1 °F 83% 30.15 in 10.0 mi North 10.4 mph - 0.00 in   Overcast
2:52 PM 46.0 °F 40.2 °F 41.0 °F 83% 30.15 in 10.0 mi North 12.7 mph - N/A   Overcast
3:52 PM 46.0 °F 40.6 °F 42.1 °F 86% 30.16 in 10.0 mi North 11.5 mph - 0.01 in   Overcast
4:52 PM 45.0 °F 40.1 °F 39.0 °F 80% 30.19 in 10.0 mi NE 9.2 mph - 0.00 in   Overcast
5:52 PM 44.1 °F 39.0 °F 37.9 °F 79% 30.20 in 10.0 mi NNE 9.2 mph - N/A   Overcast
6:52 PM 44.1 °F 39.5 °F 37.9 °F 79% 30.23 in 10.0 mi NNE 8.1 mph - N/A   Overcast
7:52 PM 44.1 °F 39.5 °F 36.0 °F 73% 30.25 in 10.0 mi NE 8.1 mph - N/A   Overcast
8:52 PM 44.1 °F 40.8 °F 36.0 °F 73% 30.27 in 10.0 mi NE 5.8 mph - N/A   Overcast
9:04 PM 42.8 °F 38.6 °F 35.6 °F 76% 30.27 in 10.0 mi NE 6.9 mph - N/A   Overcast
9:52 PM 43.0 °F 38.2 °F 36.0 °F 76% 30.27 in 10.0 mi NNE 8.1 mph - N/A   Overcast
10:52 PM 43.0 °F 38.8 °F 35.1 °F 74% 30.30 in 10.0 mi North 6.9 mph - N/A   Overcast
11:22 PM 42.8 °F 38.6 °F 35.6 °F 76% 30.31 in 10.0 mi North 6.9 mph - N/A   Overcast
11:32 PM 42.8 °F 38.6 °F 35.6 °F 76% 30.30 in 10.0 mi North 6.9 mph - N/A   Mostly Cloudy
11:52 PM 42.1 °F 38.4 °F 36.0 °F 79% 30.30 in 10.0 mi NNE 5.8 mph - N/A   Scattered Clouds